QPF
0.04 0.04 0.03 0.02 0.00 0.00 0.00 0.00 0.00 0.00 0.00 0.00 0.00 0.00 0.00 0.00 0.00 0.00 0.00 0.00 0.00 0.00 0.00 0.00 0.00 0.00 0.00 0.00 0.00 0.00 0.00 0.00 0.00 0.00 0.00 0.00 0.00 0.00 0.00 0.00 0.00 0.00 0.00 0.00
0.03 0.03 0.02 0.01 0.01 0.00 0.00 0.00 0.00 0.00 0.00 0.00 0.00 0.00 0.00 0.00 0.00 0.00 0.00 0.00 0.00 0.00 0.00 0.00 0.00 0.00 0.00 0.00 0.00 0.00 0.00 0.00 0.00 0.00 0.00 0.00 0.00 0.00 0.00 0.00 0.01 0.01 0.01 0.01
0.01 0.01 0.01 0.01 0.02 0.01 0.01 0.00 0.00 0.00 0.00 0.00 0.00 0.00 0.00 0.00 0.00 0.00 0.00 0.00 0.00 0.00 0.00 0.00 0.00 0.00 0.00 0.00 0.00 0.00 0.00 0.00 0.00 0.00 0.00 0.00 0.01 0.01 0.01 0.01 0.01 0.01 0.01 0.01
0.01 0.00 0.01 0.01 0.02 0.02 0.01 0.00 0.00 0.00 0.00 0.00 0.00 0.00 0.00 0.00 0.00 0.00 0.00 0.00 0.00 0.00 0.00 0.00 0.00 0.00 0.00 0.00 0.00 0.00 0.00 0.00 0.00 0.00 0.00 0.00 0.00 0.00 0.00 0.01 0.01 0.01 0.01 0.01
0.01 0.01 0.01 0.01 0.01 0.01 0.01 0.00 0.00 0.00 0.00 0.00 0.00 0.00 0.00 0.00 0.00 0.00 0.00 0.00 0.00 0.00 0.00 0.00 0.00 0.00 0.00 0.00 0.00 0.00 0.00 0.00 0.00 0.00 0.00 0.00 0.00 0.00 0.00 0.01 0.01 0.01 0.01 0.01
0.00 0.00 0.00 0.00 0.00 0.00 0.00 0.00 0.00 0.00 0.00 0.00 0.00 0.00 0.00 0.00 0.00 0.00 0.00 0.00 0.00 0.00 0.00 0.00 0.00 0.00 0.00 0.00 0.00 0.00 0.00 0.00 0.00 0.00 0.00 0.00 0.00 0.01 0.01 0.01 0.01 0.01 0.01 0.01
0.00 0.00 0.00 0.00 0.00 0.00 0.01 0.01 0.00 0.00 0.00 0.00 0.00 0.00 0.00 0.00 0.00 0.00 0.00 0.00 0.00 0.00 0.00 0.00 0.00 0.00 0.00 0.00 0.00 0.00 0.00 0.00 0.00 0.00 0.00 0.00 0.00 0.01 0.01 0.01 0.01 0.01 0.01 0.00
0.00 0.00 0.00 0.00 0.00 0.00 0.00 0.00 0.00 0.00 0.00 0.00 0.00 0.00 0.00 0.00 0.00 0.00 0.00 0.00 0.00 0.00 0.00 0.00 0.00 0.00 0.00 0.00 0.00 0.00 0.00 0.00 0.00 0.00 0.00 0.00 0.00 0.00 0.00 0.00 0.00 0.00 0.00 0.00
0.00 0.00 0.00 0.00 0.00 0.00 0.00 0.00 0.00 0.00 0.00 0.00 0.00 0.00 0.00 0.00 0.00 0.00 0.00 0.00 0.00 0.00 0.00 0.00 0.00 0.00 0.00 0.00 0.00 0.00 0.00 0.00 0.00 0.00 0.00 0.00 0.00 0.00 0.00 0.00 0.00 0.00 0.00 0.00
0.00 0.00 0.00 0.00 0.00 0.00 0.00 0.00 0.00 0.00 0.00 0.00 0.00 0.00 0.00 0.00 0.00 0.00 0.00 0.00 0.00 0.00 0.00 0.00 0.00 0.00 0.00 0.00 0.00 0.00 0.00 0.00 0.00 0.00 0.00 0.00 0.00 0.00 0.00 0.00 0.00 0.00 0.00 0.00
0.00 0.00 0.00 0.00 0.00 0.00 0.00 0.00 0.00 0.00 0.00 0.00 0.00 0.00 0.00 0.00 0.00 0.00 0.00 0.00 0.00 0.00 0.00 0.00 0.00 0.00 0.00 0.00 0.00 0.00 0.00 0.00 0.00 0.00 0.00 0.00 0.00 0.00 0.00 0.00 0.00 0.00 0.00 0.00
0.00 0.00 0.00 0.00 0.00 0.00 0.00 0.00 0.00 0.00 0.00 0.00 0.00 0.00 0.00 0.00 0.00 0.00 0.00 0.00 0.00 0.00 0.00 0.00 0.00 0.00 0.00 0.00 0.00 0.00 0.00 0.00 0.00 0.00 0.00 0.00 0.00 0.00 0.00 0.00 0.00 0.00 0.00 0.00
0.00 0.00 0.00 0.00 0.00 0.00 0.00 0.00 0.00 0.00 0.00 0.00 0.00 0.00 0.00 0.00 0.00 0.00 0.00 0.00 0.00 0.00 0.00 0.00 0.00 0.00 0.00 0.00 0.00 0.00 0.00 0.00 0.00 0.00 0.00 0.00 0.00 0.00 0.00 0.00 0.00 0.00 0.00 0.00
0.00 0.00 0.00 0.00 0.00 0.00 0.00 0.00 0.00 0.00 0.00 0.00 0.00 0.00 0.00 0.00 0.00 0.00 0.00 0.00 0.00 0.00 0.00 0.00 0.00 0.00 0.00 0.00 0.00 0.00 0.00 0.00 0.00 0.00 0.00 0.00 0.00 0.00 0.00 0.00 0.00 0.00 0.00 0.00
0.00 0.00 0.00 0.00 0.00 0.00 0.00 0.00 0.00 0.00 0.00 0.00 0.00 0.00 0.00 0.00 0.00 0.00 0.00 0.00 0.00 0.00 0.00 0.00 0.00 0.00 0.00 0.00 0.00 0.00 0.00 0.00 0.00 0.00 0.00 0.00 0.00 0.00 0.00 0.00 0.00 0.00 0.00 0.00
0.00 0.00 0.00 0.00 0.00 0.00 0.00 0.00 0.00 0.00 0.00 0.00 0.00 0.00 0.00 0.00 0.00 0.00 0.00 0.00 0.00 0.00 0.00 0.00 0.00 0.00 0.00 0.00 0.00 0.00 0.00 0.00 0.00 0.00 0.00 0.00 0.00 0.00 0.00 0.00 0.00 0.00 0.00 0.00
0.00 0.00 0.00 0.00 0.00 0.00 0.00 0.00 0.00 0.00 0.00 0.00 0.00 0.00 0.00 0.00 0.00 0.00 0.00 0.00 0.00 0.00 0.00 0.00 0.00 0.00 0.00 0.00 0.00 0.00 0.00 0.00 0.00 0.00 0.00 0.00 0.00 0.00 0.00 0.00 0.00 0.00 0.00 0.00
0.00 0.00 0.00 0.00 0.00 0.01 0.00 0.00 0.00 0.00 0.00 0.00 0.00 0.00 0.00 0.00 0.00 0.00 0.00 0.00 0.00 0.00 0.00 0.00 0.00 0.00 0.00 0.00 0.00 0.00 0.00 0.00 0.00 0.00 0.00 0.00 0.00 0.00 0.00 0.00 0.00 0.00 0.00 0.00
0.00 0.01 0.01 0.01 0.01 0.01 0.00 0.00 0.00 0.00 0.00 0.00 0.00 0.00 0.00 0.00 0.00 0.00 0.00 0.00 0.00 0.00 0.00 0.00 0.00 0.00 0.00 0.00 0.00 0.00 0.00 0.00 0.00 0.00 0.00 0.00 0.00 0.00 0.00 0.00 0.00 0.00 0.00 0.00
0.01 0.01 0.03 0.03 0.02 0.00 0.00 0.00 0.00 0.00 0.00 0.00 0.00 0.00 0.00 0.00 0.00 0.00 0.00 0.00 0.00 0.00 0.00 0.00 0.00 0.00 0.00 0.00 0.00 0.00 0.00 0.00 0.00 0.00 0.00 0.00 0.00 0.00 0.00 0.00 0.00 0.00 0.00 0.00
0.02 0.03 0.04 0.03 0.01 0.00 0.00 0.00 0.00 0.00 0.00 0.00 0.00 0.00 0.00 0.00 0.00 0.00 0.00 0.00 0.00 0.00 0.00 0.00 0.00 0.00 0.00 0.00 0.00 0.00 0.00 0.00 0.00 0.00 0.00 0.00 0.00 0.00 0.00 0.00 0.00 0.00 0.00 0.00
0.01 0.02 0.03 0.02 0.02 0.00 0.00 0.00 0.00 0.00 0.00 0.00 0.00 0.00 0.00 0.00 0.00 0.00 0.00 0.00 0.00 0.00 0.00 0.00 0.00 0.00 0.00 0.00 0.00 0.00 0.00 0.00 0.00 0.00 0.00 0.00 0.00 0.00 0.00 0.00 0.00 0.00 0.00 0.00
0.00 0.01 0.01 0.01 0.00 0.00 0.00 0.00 0.00 0.00 0.00 0.00 0.00 0.00 0.00 0.00 0.00 0.00 0.00 0.00 0.00 0.00 0.00 0.00 0.00 0.00 0.00 0.00 0.00 0.00 0.00 0.00 0.00 0.00 0.00 0.00 0.00 0.00 0.00 0.00 0.00 0.00 0.00 0.00
0.01 0.01 0.01 0.01 0.01 0.00 0.00 0.00 0.00 0.00 0.00 0.00 0.00 0.00 0.00 0.00 0.00 0.00 0.00 0.00 0.00 0.00 0.00 0.00 0.00 0.00 0.00 0.00 0.00 0.00 0.00 0.00 0.00 0.00 0.00 0.00 0.00 0.00 0.00 0.00 0.00 0.00 0.00 0.00
0.01 0.01 0.01 0.02 0.01 0.00 0.00 0.00 0.00 0.00 0.00 0.00 0.00 0.00 0.00 0.00 0.00 0.00 0.00 0.00 0.00 0.00 0.00 0.00 0.00 0.00 0.00 0.00 0.00 0.00 0.00 0.00 0.00 0.00 0.00 0.00 0.00 0.00 0.00 0.00 0.00 0.00 0.00 0.00
0.00 0.01 0.01 0.01 0.01 0.00 0.00 0.00 0.00 0.00 0.00 0.00 0.00 0.00 0.00 0.00 0.00 0.00 0.00 0.00 0.00 0.00 0.00 0.00 0.00 0.00 0.00 0.00 0.00 0.00 0.00 0.00 0.00 0.00 0.00 0.00 0.00 0.00 0.00 0.00 0.00 0.00 0.00 0.00
MSLP
1017.04 1017.60 1017.98 1018.19 1018.28 1018.32 1018.36 1018.44 1018.57 1018.74 1018.89 1019.00 1019.03 1018.94 1018.76 1018.49 1018.19 1017.90 1017.65 1017.48 1017.40 1017.39 1017.44 1017.54 1017.65 1017.78 1017.92 1018.11 1018.36 1018.70 1019.13 1019.65 1020.24 1020.85 1021.46 1022.02 1022.50 1022.88 1023.17 1023.38 1023.56 1023.72 1023.91 1024.15
1016.93 1017.41 1017.71 1017.87 1017.95 1018.02 1018.14 1018.33 1018.58 1018.87 1019.11 1019.27 1019.28 1019.13 1018.82 1018.41 1017.95 1017.51 1017.16 1016.92 1016.81 1016.82 1016.91 1017.05 1017.20 1017.34 1017.49 1017.66 1017.89 1018.20 1018.62 1019.16 1019.78 1020.45 1021.13 1021.75 1022.28 1022.69 1022.98 1023.17 1023.30 1023.42 1023.57 1023.77
1016.66 1017.04 1017.27 1017.40 1017.51 1017.65 1017.87 1018.20 1018.59 1018.99 1019.31 1019.49 1019.47 1019.23 1018.79 1018.22 1017.61 1017.03 1016.58 1016.30 1016.18 1016.23 1016.38 1016.59 1016.80 1017.00 1017.17 1017.33 1017.54 1017.82 1018.22 1018.74 1019.37 1020.06 1020.76 1021.42 1021.98 1022.41 1022.70 1022.89 1023.00 1023.09 1023.21 1023.40
1016.24 1016.53 1016.71 1016.84 1016.99 1017.23 1017.59 1018.06 1018.60 1019.10 1019.49 1019.68 1019.60 1019.26 1018.68 1017.96 1017.20 1016.51 1015.98 1015.67 1015.58 1015.68 1015.92 1016.22 1016.52 1016.77 1016.98 1017.15 1017.33 1017.57 1017.92 1018.39 1018.98 1019.65 1020.34 1021.01 1021.58 1022.02 1022.33 1022.53 1022.65 1022.75 1022.87 1023.06
1015.72 1015.94 1016.09 1016.24 1016.46 1016.82 1017.32 1017.94 1018.61 1019.21 1019.64 1019.81 1019.67 1019.23 1018.52 1017.67 1016.78 1016.01 1015.43 1015.12 1015.07 1015.25 1015.58 1015.98 1016.37 1016.69 1016.93 1017.10 1017.25 1017.44 1017.71 1018.10 1018.62 1019.23 1019.88 1020.52 1021.09 1021.56 1021.90 1022.14 1022.30 1022.45 1022.61 1022.84
1015.15 1015.31 1015.44 1015.64 1015.95 1016.43 1017.08 1017.83 1018.60 1019.27 1019.72 1019.87 1019.67 1019.13 1018.32 1017.36 1016.40 1015.57 1014.98 1014.69 1014.70 1014.97 1015.40 1015.90 1016.38 1016.76 1017.03 1017.19 1017.30 1017.41 1017.59 1017.88 1018.30 1018.82 1019.41 1020.02 1020.59 1021.08 1021.48 1021.79 1022.04 1022.27 1022.51 1022.80
1014.55 1014.67 1014.82 1015.07 1015.48 1016.07 1016.83 1017.68 1018.53 1019.23 1019.69 1019.80 1019.54 1018.93 1018.06 1017.04 1016.05 1015.22 1014.66 1014.42 1014.51 1014.87 1015.40 1015.99 1016.53 1016.96 1017.24 1017.39 1017.44 1017.47 1017.56 1017.74 1018.05 1018.49 1019.02 1019.59 1020.17 1020.70 1021.18 1021.59 1021.94 1022.28 1022.63 1022.99
1013.93 1014.04 1014.22 1014.54 1015.03 1015.71 1016.54 1017.46 1018.33 1019.04 1019.47 1019.55 1019.25 1018.60 1017.71 1016.71 1015.74 1014.97 1014.48 1014.33 1014.51 1014.95 1015.56 1016.22 1016.81 1017.26 1017.54 1017.66 1017.67 1017.63 1017.62 1017.71 1017.93 1018.29 1018.77 1019.33 1019.92 1020.52 1021.08 1021.60 1022.08 1022.54 1022.99 1023.44
1013.26 1013.41 1013.64 1014.02 1014.57 1015.31 1016.18 1017.10 1017.95 1018.63 1019.02 1019.06 1018.74 1018.11 1017.26 1016.32 1015.46 1014.79 1014.42 1014.38 1014.66 1015.18 1015.86 1016.55 1017.17 1017.62 1017.90 1017.99 1017.95 1017.86 1017.79 1017.81 1017.97 1018.28 1018.73 1019.30 1019.93 1020.59 1021.24 1021.87 1022.47 1023.04 1023.58 1024.10
1012.55 1012.76 1013.06 1013.50 1014.10 1014.86 1015.71 1016.59 1017.38 1017.98 1018.31 1018.32 1018.01 1017.42 1016.67 1015.86 1015.15 1014.65 1014.43 1014.52 1014.90 1015.50 1016.21 1016.92 1017.54 1017.99 1018.25 1018.33 1018.28 1018.17 1018.07 1018.07 1018.21 1018.51 1018.96 1019.54 1020.21 1020.93 1021.66 1022.38 1023.07 1023.72 1024.32 1024.87
1011.81 1012.11 1012.50 1012.99 1013.62 1014.35 1015.15 1015.93 1016.62 1017.12 1017.37 1017.35 1017.06 1016.56 1015.94 1015.31 1014.80 1014.49 1014.44 1014.67 1015.14 1015.80 1016.54 1017.26 1017.86 1018.31 1018.56 1018.65 1018.61 1018.53 1018.46 1018.48 1018.64 1018.96 1019.44 1020.04 1020.75 1021.51 1022.30 1023.06 1023.80 1024.48 1025.10 1025.65
1011.08 1011.50 1011.97 1012.51 1013.14 1013.82 1014.52 1015.18 1015.72 1016.10 1016.26 1016.21 1015.95 1015.55 1015.09 1014.66 1014.36 1014.25 1014.38 1014.74 1015.30 1016.00 1016.75 1017.46 1018.06 1018.51 1018.78 1018.91 1018.93 1018.91 1018.92 1019.01 1019.23 1019.60 1020.11 1020.74 1021.46 1022.24 1023.03 1023.80 1024.53 1025.20 1025.80 1026.31
1010.42 1010.95 1011.51 1012.10 1012.70 1013.31 1013.89 1014.39 1014.78 1015.01 1015.07 1014.98 1014.76 1014.46 1014.15 1013.91 1013.81 1013.89 1014.17 1014.65 1015.28 1016.01 1016.77 1017.47 1018.07 1018.54 1018.86 1019.06 1019.18 1019.27 1019.40 1019.60 1019.90 1020.33 1020.88 1021.53 1022.25 1023.00 1023.76 1024.49 1025.18 1025.79 1026.33 1026.79
1009.88 1010.53 1011.17 1011.78 1012.35 1012.87 1013.30 1013.63 1013.84 1013.92 1013.88 1013.74 1013.53 1013.31 1013.13 1013.06 1013.13 1013.36 1013.77 1014.34 1015.02 1015.76 1016.52 1017.22 1017.84 1018.35 1018.76 1019.07 1019.33 1019.58 1019.85 1020.18 1020.59 1021.09 1021.67 1022.31 1023.00 1023.70 1024.40 1025.06 1025.66 1026.21 1026.68 1027.08
1009.52 1010.26 1010.95 1011.57 1012.08 1012.49 1012.78 1012.93 1012.96 1012.89 1012.73 1012.53 1012.33 1012.16 1012.08 1012.12 1012.32 1012.66 1013.15 1013.77 1014.47 1015.22 1015.97 1016.69 1017.35 1017.94 1018.46 1018.92 1019.35 1019.77 1020.22 1020.69 1021.21 1021.78 1022.38 1023.01 1023.65 1024.28 1024.89 1025.46 1025.98 1026.45 1026.85 1027.19
1009.33 1010.14 1010.85 1011.44 1011.88 1012.17 1012.30 1012.29 1012.15 1011.93 1011.67 1011.40 1011.18 1011.04 1011.02 1011.14 1011.40 1011.80 1012.33 1012.96 1013.66 1014.40 1015.15 1015.90 1016.62 1017.30 1017.96 1018.60 1019.22 1019.84 1020.46 1021.09 1021.72 1022.34 1022.96 1023.57 1024.15 1024.70 1025.22 1025.70 1026.15 1026.55 1026.90 1027.21
1009.30 1010.12 1010.81 1011.34 1011.69 1011.85 1011.84 1011.67 1011.39 1011.05 1010.69 1010.37 1010.12 1009.99 1009.99 1010.13 1010.42 1010.83 1011.36 1011.97 1012.65 1013.37 1014.13 1014.91 1015.70 1016.51 1017.33 1018.14 1018.97 1019.78 1020.58 1021.34 1022.07 1022.76 1023.39 1023.97 1024.50 1024.98 1025.43 1025.84 1026.23 1026.58 1026.91 1027.21
1009.35 1010.13 1010.76 1011.20 1011.44 1011.47 1011.33 1011.04 1010.65 1010.21 1009.79 1009.43 1009.17 1009.04 1009.04 1009.19 1009.47 1009.86 1010.35 1010.92 1011.56 1012.26 1013.03 1013.85 1014.72 1015.64 1016.61 1017.61 1018.61 1019.61 1020.56 1021.46 1022.28 1023.01 1023.66 1024.22 1024.71 1025.15 1025.55 1025.92 1026.27 1026.61 1026.94 1027.24
1009.41 1010.10 1010.63 1010.95 1011.07 1010.99 1010.74 1010.36 1009.90 1009.42 1008.98 1008.61 1008.36 1008.23 1008.24 1008.38 1008.64 1008.99 1009.44 1009.96 1010.56 1011.23 1011.99 1012.85 1013.79 1014.82 1015.92 1017.06 1018.22 1019.37 1020.45 1021.46 1022.35 1023.13 1023.79 1024.35 1024.83 1025.24 1025.62 1025.98 1026.33 1026.67 1027.01 1027.33
1009.40 1009.97 1010.37 1010.57 1010.57 1010.39 1010.07 1009.64 1009.16 1008.69 1008.27 1007.94 1007.73 1007.64 1007.67 1007.81 1008.05 1008.37 1008.76 1009.23 1009.78 1010.43 1011.18 1012.05 1013.05 1014.15 1015.34 1016.60 1017.87 1019.12 1020.30 1021.38 1022.33 1023.14 1023.83 1024.40 1024.88 1025.30 1025.68 1026.05 1026.41 1026.78 1027.13 1027.46
1009.28 1009.71 1009.96 1010.04 1009.94 1009.69 1009.33 1008.91 1008.46 1008.05 1007.71 1007.46 1007.32 1007.30 1007.37 1007.54 1007.77 1008.07 1008.43 1008.86 1009.37 1009.98 1010.71 1011.58 1012.59 1013.73 1014.97 1016.28 1017.61 1018.91 1020.14 1021.26 1022.24 1023.08 1023.78 1024.38 1024.88 1025.32 1025.73 1026.12 1026.52 1026.90 1027.27 1027.60
1009.04 1009.32 1009.44 1009.41 1009.24 1008.96 1008.61 1008.23 1007.86 1007.56 1007.33 1007.20 1007.18 1007.25 1007.39 1007.60 1007.86 1008.15 1008.49 1008.89 1009.37 1009.94 1010.65 1011.50 1012.49 1013.62 1014.86 1016.16 1017.49 1018.79 1020.02 1021.13 1022.12 1022.97 1023.69 1024.31 1024.84 1025.32 1025.77 1026.20 1026.62 1027.02 1027.39 1027.71
1008.70 1008.85 1008.86 1008.75 1008.55 1008.27 1007.97 1007.67 1007.43 1007.25 1007.18 1007.19 1007.30 1007.48 1007.71 1007.98 1008.28 1008.59 1008.94 1009.32 1009.77 1010.32 1010.99 1011.80 1012.75 1013.82 1015.01 1016.26 1017.53 1018.78 1019.96 1021.04 1022.00 1022.84 1023.58 1024.21 1024.78 1025.30 1025.78 1026.25 1026.70 1027.11 1027.48 1027.77
1008.30 1008.35 1008.30 1008.15 1007.94 1007.71 1007.49 1007.30 1007.19 1007.17 1007.24 1007.41 1007.65 1007.94 1008.27 1008.62 1008.96 1009.31 1009.67 1010.06 1010.50 1011.03 1011.66 1012.42 1013.30 1014.30 1015.39 1016.54 1017.72 1018.87 1019.97 1020.99 1021.90 1022.72 1023.45 1024.10 1024.70 1025.26 1025.78 1026.29 1026.75 1027.18 1027.53 1027.80
1007.93 1007.91 1007.82 1007.68 1007.51 1007.35 1007.23 1007.17 1007.19 1007.31 1007.52 1007.81 1008.16 1008.56 1008.97 1009.38 1009.78 1010.18 1010.57 1010.97 1011.42 1011.93 1012.54 1013.24 1014.05 1014.96 1015.95 1016.98 1018.03 1019.07 1020.06 1020.99 1021.84 1022.62 1023.34 1024.00 1024.62 1025.21 1025.77 1026.30 1026.79 1027.21 1027.56 1027.81
1007.65 1007.61 1007.53 1007.42 1007.32 1007.25 1007.23 1007.28 1007.42 1007.65 1007.96 1008.34 1008.77 1009.22 1009.69 1010.16 1010.60 1011.04 1011.46 1011.90 1012.37 1012.89 1013.47 1014.14 1014.89 1015.71 1016.59 1017.50 1018.43 1019.34 1020.22 1021.05 1021.83 1022.57 1023.26 1023.92 1024.55 1025.17 1025.75 1026.31 1026.81 1027.25 1027.59 1027.82
Thickness
5581 5581 5590 5601 5605 5611 5611 5614 5619 5630 5642 5645 5648 5656 5667 5673 5674 5675 5678 5683 5688 5696 5703 5704 5707 5707 5706 5705 5703 5702 5699 5697 5693 5689 5686 5683 5681 5679 5677 5675 5672 5670 5667 5665
5570 5583 5598 5598 5599 5603 5605 5608 5615 5625 5635 5636 5639 5647 5660 5666 5671 5678 5682 5685 5691 5694 5698 5702 5704 5705 5706 5705 5704 5702 5700 5697 5695 5691 5688 5685 5681 5677 5675 5672 5670 5667 5665 5662
5577 5588 5590 5590 5591 5593 5597 5602 5609 5615 5623 5631 5632 5636 5649 5661 5668 5674 5680 5686 5691 5695 5699 5701 5702 5703 5704 5704 5704 5703 5700 5698 5695 5691 5686 5681 5677 5674 5671 5669 5667 5665 5662 5659
5569 5581 5583 5582 5586 5592 5592 5606 5609 5607 5607 5606 5618 5612 5639 5652 5660 5669 5677 5682 5688 5694 5698 5700 5701 5701 5702 5702 5702 5701 5699 5696 5693 5689 5684 5680 5676 5673 5670 5667 5664 5661 5658 5655
5565 5574 5577 5581 5591 5593 5598 5604 5602 5601 5600 5599 5606 5607 5628 5645 5652 5667 5678 5683 5687 5691 5693 5696 5698 5699 5698 5697 5696 5696 5695 5693 5691 5687 5683 5678 5673 5670 5666 5662 5659 5656 5653 5650
5565 5573 5579 5587 5592 5592 5593 5591 5590 5588 5587 5585 5598 5600 5619 5636 5657 5672 5679 5682 5684 5685 5686 5688 5689 5690 5690 5688 5688 5689 5690 5689 5687 5684 5680 5675 5670 5665 5661 5657 5653 5649 5645 5642
5553 5565 5576 5584 5579 5580 5583 5577 5566 5567 5565 5578 5595 5597 5618 5648 5659 5670 5678 5679 5677 5676 5676 5677 5679 5680 5681 5681 5681 5681 5682 5682 5682 5679 5676 5672 5667 5662 5657 5652 5647 5642 5637 5632
5547 5553 5569 5578 5583 5578 5580 5584 5569 5562 5564 5571 5584 5588 5620 5647 5657 5663 5668 5669 5667 5665 5666 5669 5670 5671 5672 5673 5673 5673 5674 5674 5674 5673 5669 5666 5661 5656 5650 5645 5639 5634 5628 5623
5559 5560 5569 5575 5583 5585 5576 5577 5585 5571 5560 5567 5577 5595 5615 5639 5648 5654 5656 5657 5657 5656 5657 5658 5660 5661 5662 5664 5664 5665 5665 5665 5665 5664 5661 5656 5652 5647 5640 5634 5628 5623 5617 5612
5566 5554 5559 5566 5575 5578 5584 5579 5565 5561 5556 5563 5581 5590 5609 5633 5641 5647 5648 5650 5648 5646 5645 5646 5648 5649 5650 5652 5654 5654 5655 5655 5654 5653 5650 5645 5640 5635 5629 5623 5616 5611 5605 5600
5561 5550 5545 5554 5562 5568 5570 5571 5572 5567 5564 5565 5568 5592 5623 5639 5648 5651 5652 5647 5641 5637 5636 5636 5636 5637 5639 5640 5641 5642 5641 5641 5640 5639 5636 5632 5626 5621 5615 5609 5602 5598 5592 5587
5549 5541 5532 5545 5559 5567 5573 5575 5573 5569 5561 5567 5574 5594 5630 5635 5641 5644 5644 5639 5633 5630 5627 5625 5625 5625 5626 5627 5628 5628 5628 5628 5626 5625 5622 5617 5611 5606 5601 5594 5589 5584 5579 5574
5547 5536 5522 5527 5541 5553 5560 5568 5575 5576 5562 5555 5567 5594 5621 5624 5631 5634 5633 5628 5623 5618 5615 5614 5613 5613 5613 5614 5614 5614 5614 5613 5611 5610 5606 5601 5596 5591 5586 5580 5575 5570 5565 5559
5550 5538 5538 5542 5558 5555 5554 5561 5566 5564 5556 5559 5574 5596 5614 5619 5622 5623 5621 5616 5612 5609 5607 5605 5604 5603 5602 5602 5601 5601 5599 5598 5597 5594 5591 5585 5580 5576 5571 5566 5561 5555 5550 5544
5548 5536 5539 5550 5556 5558 5560 5561 5562 5567 5571 5573 5588 5593 5611 5617 5618 5616 5610 5604 5601 5600 5600 5599 5597 5594 5592 5590 5588 5588 5586 5584 5582 5579 5575 5570 5565 5560 5556 5551 5545 5540 5534 5529
5543 5535 5532 5535 5541 5548 5550 5554 5558 5565 5573 5576 5585 5592 5607 5611 5607 5604 5601 5598 5598 5598 5597 5595 5591 5588 5585 5583 5579 5577 5573 5570 5568 5564 5559 5554 5550 5545 5540 5535 5530 5524 5518 5513
5532 5525 5522 5518 5524 5530 5531 5551 5559 5562 5570 5576 5583 5602 5598 5599 5598 5600 5598 5596 5599 5599 5596 5591 5588 5585 5580 5576 5572 5566 5561 5557 5552 5548 5543 5539 5535 5530 5525 5520 5514 5508 5503 5497
5526 5516 5506 5495 5507 5506 5546 5560 5563 5567 5576 5582 5589 5596 5595 5600 5600 5598 5598 5598 5597 5595 5591 5588 5583 5578 5572 5565 5559 5553 5547 5543 5538 5533 5528 5524 5520 5515 5509 5503 5498 5492 5487 5481
5521 5509 5485 5486 5496 5507 5534 5546 5555 5558 5567 5580 5583 5587 5585 5586 5585 5587 5591 5593 5596 5594 5590 5585 5578 5570 5561 5554 5547 5540 5533 5528 5524 5519 5514 5509 5505 5499 5493 5488 5482 5476 5471 5465
5499 5503 5486 5474 5484 5496 5548 5551 5550 5551 5555 5580 5577 5577 5571 5567 5569 5590 5590 5584 5584 5581 5576 5569 5562 5554 5548 5541 5534 5527 5521 5516 5511 5506 5500 5494 5489 5484 5478 5473 5466 5460 5456 5450
5480 5480 5479 5471 5479 5504 5531 5535 5539 5536 5562 5570 5568 5569 5564 5565 5580 5584 5577 5573 5571 5566 5560 5555 5549 5542 5536 5527 5521 5514 5508 5503 5497 5489 5482 5477 5472 5467 5462 5456 5451 5445 5440 5434
5489 5480 5475 5471 5479 5506 5521 5517 5534 5545 5549 5550 5552 5553 5554 5557 5557 5555 5555 5553 5550 5546 5542 5538 5533 5526 5519 5513 5508 5501 5493 5486 5478 5472 5466 5460 5455 5451 5445 5440 5434 5429 5424 5418
5486 5498 5494 5499 5511 5511 5508 5515 5522 5525 5530 5532 5532 5535 5536 5535 5534 5533 5531 5529 5527 5526 5523 5520 5515 5508 5500 5496 5493 5487 5477 5468 5461 5455 5448 5443 5438 5433 5429 5424 5419 5413 5407 5403
5469 5479 5479 5482 5488 5493 5494 5499 5503 5507 5512 5513 5515 5517 5519 5520 5518 5514 5511 5509 5507 5504 5502 5499 5495 5489 5481 5476 5473 5468 5459 5452 5446 5439 5433 5427 5422 5417 5412 5408 5404 5398 5392 5387
5464 5464 5468 5472 5474 5476 5480 5482 5487 5489 5491 5493 5496 5499 5501 5502 5500 5497 5494 5491 5488 5486 5482 5480 5479 5473 5465 5458 5452 5447 5442 5437 5431 5424 5418 5412 5407 5402 5397 5392 5387 5383 5378 5373
5445 5453 5461 5466 5464 5466 5469 5471 5471 5472 5475 5476 5479 5481 5482 5482 5482 5480 5477 5474 5471 5467 5464 5461 5457 5452 5445 5440 5434 5429 5425 5422 5417 5410 5403 5397 5392 5386 5381 5375 5369 5366 5362 5357